Time,TemperatureF,DewpointF,PressureIn,WindDirection,WindDirectionDegrees,WindSpeedMPH,WindSpeedGustMPH,Humidity,HourlyPrecipIn,Conditions,Clouds,dailyrainin,SoftwareType,DateUTC
2013-01-29 00:02:00,47.0,39.0,30.29,NW,323,2.0,-999.0,74,-99.99,,,-99.99,,2013-01-29 08:02:00,
2013-01-29 00:11:00,47.0,39.0,30.29,NW,323,2.0,-999.0,74,-99.99,,,-99.99,,2013-01-29 08:11:00,
2013-01-29 00:21:00,47.0,39.0,30.29,NNW,329,3.0,-999.0,73,-99.99,,,-99.99,,2013-01-29 08:21:00,
2013-01-29 00:31:00,47.0,38.0,30.30,WNW,300,4.0,-999.0,72,-99.99,,,-99.99,,2013-01-29 08:31:00,
2013-01-29 00:41:00,47.0,38.0,30.30,WNW,300,4.0,-999.0,72,-99.99,,,-99.99,,2013-01-29 08:41:00,
2013-01-29 00:52:00,47.0,38.0,30.30,NW,313,2.0,-999.0,72,-99.99,,,-99.99,,2013-01-29 08:52:00,
2013-01-29 01:01:00,47.0,39.0,30.29,NE,34,2.0,-999.0,73,-99.99,,,-99.99,,2013-01-29 09:01:00,
2013-01-29 01:11:00,47.0,39.0,30.29,NE,34,2.0,-999.0,73,-99.99,,,-99.99,,2013-01-29 09:11:00,
2013-01-29 01:21:00,46.0,38.0,30.29,NW,317,2.0,-999.0,74,-99.99,,,-99.99,,2013-01-29 09:21:00,
2013-01-29 01:31:00,46.0,38.0,30.29,NNW,346,2.0,-999.0,74,-99.99,,,-99.99,,2013-01-29 09:31:00,
2013-01-29 01:42:00,46.0,38.0,30.29,NNW,346,2.0,-999.0,74,-99.99,,,-99.99,,2013-01-29 09:42:00,
2013-01-29 01:51:00,46.0,38.0,30.29,NNW,336,3.0,-999.0,74,-99.99,,,-99.99,,2013-01-29 09:51:00,
2013-01-29 02:01:00,46.0,38.0,30.29,NW,317,2.0,-999.0,74,-99.99,,,-99.99,,2013-01-29 10:01:00,
2013-01-29 02:11:00,46.0,38.0,30.29,NW,317,2.0,-999.0,74,-99.99,,,-99.99,,2013-01-29 10:11:00,
2013-01-29 02:21:00,46.0,38.0,30.29,NW,317,2.0,-999.0,74,-99.99,,,-99.99,,2013-01-29 10:21:00,
2013-01-29 02:32:00,46.0,38.0,30.30,NW,325,1.0,-999.0,73,-99.99,,,-99.99,,2013-01-29 10:32:00,
2013-01-29 02:42:00,46.0,38.0,30.30,NW,325,1.0,-999.0,73,-99.99,,,-99.99,,2013-01-29 10:42:00,
2013-01-29 02:52:00,46.0,38.0,30.30,NW,320,1.0,-999.0,74,-99.99,,,-99.99,,2013-01-29 10:52:00,
2013-01-29 03:01:00,46.0,38.0,30.30,NNW,333,1.0,-999.0,74,-99.99,,,-99.99,,2013-01-29 11:01:00,
2013-01-29 03:11:00,46.0,38.0,30.30,NNW,333,1.0,-999.0,74,-99.99,,,-99.99,,2013-01-29 11:11:00,
2013-01-29 03:21:00,45.0,38.0,30.30,NNW,334,0.0,-999.0,75,-99.99,,,-99.99,,2013-01-29 11:21:00,
2013-01-29 03:31:00,43.0,36.0,30.30,NNW,334,0.0,-999.0,77,-99.99,,,-99.99,,2013-01-29 11:31:00,
2013-01-29 03:42:00,43.0,36.0,30.30,NNW,334,0.0,-999.0,77,-99.99,,,-99.99,,2013-01-29 11:42:00,
2013-01-29 03:52:00,43.0,37.0,30.31,NNW,334,0.0,-999.0,78,-99.99,,,-99.99,,2013-01-29 11:52:00,
2013-01-29 04:02:00,43.0,37.0,30.31,North,360,0.0,-999.0,78,-99.99,,,-99.99,,2013-01-29 12:02:00,
2013-01-29 04:12:00,43.0,37.0,30.31,North,360,0.0,-999.0,78,-99.99,,,-99.99,,2013-01-29 12:12:00,
2013-01-29 04:22:00,44.0,37.0,30.31,NNW,336,0.0,-999.0,77,-99.99,,,-99.99,,2013-01-29 12:22:00,
2013-01-29 04:32:00,44.0,37.0,30.31,NNW,336,0.0,-999.0,76,-99.99,,,-99.99,,2013-01-29 12:32:00,
2013-01-29 04:42:00,44.0,37.0,30.31,NNW,336,0.0,-999.0,76,-99.99,,,-99.99,,2013-01-29 12:42:00,
2013-01-29 04:52:00,44.0,37.0,30.31,NNW,336,0.0,-999.0,76,-99.99,,,-99.99,,2013-01-29 12:52:00,
2013-01-29 05:01:00,44.0,37.0,30.31,NNW,336,0.0,-999.0,76,-99.99,,,-99.99,,2013-01-29 13:01:00,
2013-01-29 05:11:00,44.0,37.0,30.31,NNW,336,0.0,-999.0,76,-99.99,,,-99.99,,2013-01-29 13:11:00,
2013-01-29 05:22:00,43.0,36.0,30.31,NNW,327,0.0,-999.0,77,-99.99,,,-99.99,,2013-01-29 13:22:00,
2013-01-29 05:32:00,43.0,36.0,30.32,NNW,327,0.0,-999.0,77,-99.99,,,-99.99,,2013-01-29 13:32:00,
2013-01-29 05:42:00,43.0,36.0,30.32,NNW,327,0.0,-999.0,77,-99.99,,,-99.99,,2013-01-29 13:42:00,
2013-01-29 05:52:00,42.0,36.0,30.32,NNW,327,0.0,-999.0,78,-99.99,,,-99.99,,2013-01-29 13:52:00,
2013-01-29 06:01:00,41.0,35.0,30.32,NNW,327,0.0,-999.0,79,-99.99,,,-99.99,,2013-01-29 14:01:00,
2013-01-29 06:12:00,41.0,36.0,30.32,NNW,327,0.0,-999.0,81,-99.99,,,-99.99,,2013-01-29 14:12:00,
2013-01-29 06:21:00,41.0,36.0,30.32,NNW,327,0.0,-999.0,81,-99.99,,,-99.99,,2013-01-29 14:21:00,
2013-01-29 06:32:00,40.0,35.0,30.32,NNW,330,0.0,-999.0,83,-99.99,,,-99.99,,2013-01-29 14:32:00,
2013-01-29 06:43:00,40.0,35.0,30.32,NNW,330,0.0,-999.0,83,-99.99,,,-99.99,,2013-01-29 14:43:00,
2013-01-29 06:52:00,41.0,36.0,30.33,NNW,330,0.0,-999.0,82,-99.99,,,-99.99,,2013-01-29 14:52:00,
2013-01-29 07:02:00,41.0,36.0,30.33,NNW,330,0.0,-999.0,82,-99.99,,,-99.99,,2013-01-29 15:02:00,
2013-01-29 07:11:00,41.0,36.0,30.33,NNW,330,0.0,-999.0,82,-99.99,,,-99.99,,2013-01-29 15:11:00,
2013-01-29 07:21:00,40.0,35.0,30.33,NNW,330,0.0,-999.0,83,-99.99,,,-99.99,,2013-01-29 15:21:00,
2013-01-29 07:32:00,40.0,35.0,30.33,NNW,330,0.0,-999.0,83,-99.99,,,-99.99,,2013-01-29 15:32:00,
2013-01-29 07:42:00,40.0,35.0,30.33,NNW,330,0.0,-999.0,83,-99.99,,,-99.99,,2013-01-29 15:42:00,
2013-01-29 07:52:00,39.0,35.0,30.34,NNW,330,0.0,-999.0,85,-99.99,,,-99.99,,2013-01-29 15:52:00,
2013-01-29 08:02:00,39.0,35.0,30.34,NNW,330,0.0,-999.0,85,-99.99,,,-99.99,,2013-01-29 16:02:00,
2013-01-29 08:12:00,39.0,35.0,30.34,NNW,330,0.0,-999.0,85,-99.99,,,-99.99,,2013-01-29 16:12:00,
2013-01-29 08:22:00,39.0,35.0,30.34,NNW,330,0.0,-999.0,86,-99.99,,,-99.99,,2013-01-29 16:22:00,
2013-01-29 08:32:00,39.0,35.0,30.34,NNW,330,0.0,-999.0,86,-99.99,,,-99.99,,2013-01-29 16:32:00,
2013-01-29 08:42:00,39.0,35.0,30.34,NNW,330,0.0,-999.0,86,-99.99,,,-99.99,,2013-01-29 16:42:00,
2013-01-29 08:52:00,40.0,36.0,30.35,NNW,330,0.0,-999.0,86,-99.99,,,-99.99,,2013-01-29 16:52:00,
2013-01-29 09:02:00,40.0,36.0,30.35,NNW,330,0.0,-999.0,86,-99.99,,,-99.99,,2013-01-29 17:02:00,
2013-01-29 09:12:00,40.0,36.0,30.35,NNW,330,0.0,-999.0,86,-99.99,,,-99.99,,2013-01-29 17:12:00,
2013-01-29 09:21:00,41.0,37.0,30.35,NNW,330,0.0,-999.0,86,-99.99,,,-99.99,,2013-01-29 17:21:00,
2013-01-29 09:32:00,44.0,39.0,30.35,NNW,330,0.0,-999.0,81,-99.99,,,-99.99,,2013-01-29 17:32:00,
2013-01-29 09:42:00,44.0,39.0,30.35,NNW,330,0.0,-999.0,81,-99.99,,,-99.99,,2013-01-29 17:42:00,
2013-01-29 09:52:00,47.0,39.0,30.35,ESE,115,0.0,-999.0,75,-99.99,,,-99.99,,2013-01-29 17:52:00,
2013-01-29 10:03:00,49.0,40.0,30.35,ESE,115,0.0,-999.0,72,-99.99,,,-99.99,,2013-01-29 18:03:00,
2013-01-29 10:12:00,49.0,40.0,30.35,ESE,115,0.0,-999.0,72,-99.99,,,-99.99,,2013-01-29 18:12:00,
2013-01-29 10:22:00,49.0,40.0,30.35,NNW,329,1.0,-999.0,72,-99.99,,,-99.99,,2013-01-29 18:22:00,
2013-01-29 10:33:00,49.0,40.0,30.36,NNW,334,1.0,-999.0,71,-99.99,,,-99.99,,2013-01-29 18:33:00,
2013-01-29 10:42:00,49.0,40.0,30.36,NNW,334,1.0,-999.0,71,-99.99,,,-99.99,,2013-01-29 18:42:00,
2013-01-29 10:51:00,50.0,41.0,30.36,NW,325,0.0,-999.0,70,-99.99,,,-99.99,,2013-01-29 18:51:00,
2013-01-29 11:02:00,50.0,40.0,30.36,NW,319,1.0,-999.0,69,-99.99,,,-99.99,,2013-01-29 19:02:00,
2013-01-29 11:11:00,50.0,40.0,30.36,NW,319,1.0,-999.0,69,-99.99,,,-99.99,,2013-01-29 19:11:00,
2013-01-29 11:22:00,52.0,42.0,30.36,WNW,298,0.0,-999.0,69,-99.99,,,-99.99,,2013-01-29 19:22:00,
2013-01-29 11:32:00,53.0,42.0,30.36,NNW,340,0.0,-999.0,65,-99.99,,,-99.99,,2013-01-29 19:32:00,
2013-01-29 11:42:00,53.0,42.0,30.36,NNW,340,0.0,-999.0,65,-99.99,,,-99.99,,2013-01-29 19:42:00,
2013-01-29 11:52:00,54.0,40.0,30.35,NNW,331,1.0,-999.0,60,-99.99,,,-99.99,,2013-01-29 19:52:00,
2013-01-29 12:02:00,55.0,40.0,30.35,WNW,298,2.0,-999.0,56,-99.99,,,-99.99,,2013-01-29 20:02:00,
2013-01-29 12:12:00,55.0,40.0,30.35,WNW,298,2.0,-999.0,56,-99.99,,,-99.99,,2013-01-29 20:12:00,
2013-01-29 12:22:00,55.0,39.0,30.35,NNW,343,2.0,-999.0,55,-99.99,,,-99.99,,2013-01-29 20:22:00,
2013-01-29 12:32:00,56.0,40.0,30.34,NW,324,1.0,-999.0,55,-99.99,,,-99.99,,2013-01-29 20:32:00,
2013-01-29 12:42:00,56.0,40.0,30.34,NW,324,1.0,-999.0,55,-99.99,,,-99.99,,2013-01-29 20:42:00,
2013-01-29 12:53:00,57.0,40.0,30.33,NW,322,1.0,-999.0,53,-99.99,,,-99.99,,2013-01-29 20:53:00,
2013-01-29 13:02:00,58.0,41.0,30.32,NNW,331,2.0,-999.0,53,-99.99,,,-99.99,,2013-01-29 21:02:00,
2013-01-29 13:12:00,58.0,41.0,30.32,NNW,331,2.0,-999.0,53,-99.99,,,-99.99,,2013-01-29 21:12:00,
2013-01-29 13:21:00,59.0,42.0,30.31,NNW,333,1.0,-999.0,53,-99.99,,,-99.99,,2013-01-29 21:21:00,
2013-01-29 13:33:00,60.0,42.0,30.31,NNW,331,1.0,-999.0,51,-99.99,,,-99.99,,2013-01-29 21:33:00,
2013-01-29 13:42:00,60.0,42.0,30.31,NNW,331,1.0,-999.0,51,-99.99,,,-99.99,,2013-01-29 21:42:00,
2013-01-29 13:52:00,60.0,42.0,30.30,NNW,335,1.0,-999.0,51,-99.99,,,-99.99,,2013-01-29 21:52:00,
2013-01-29 14:02:00,61.0,41.0,30.30,NNW,328,1.0,-999.0,48,-99.99,,,-99.99,,2013-01-29 22:02:00,
2013-01-29 14:12:00,61.0,41.0,30.30,NNW,328,1.0,-999.0,48,-99.99,,,-99.99,,2013-01-29 22:12:00,
2013-01-29 14:21:00,62.0,42.0,30.29,NNW,338,1.0,-999.0,47,-99.99,,,-99.99,,2013-01-29 22:21:00,
2013-01-29 14:32:00,62.0,42.0,30.28,NNW,332,1.0,-999.0,48,-99.99,,,-99.99,,2013-01-29 22:32:00,
2013-01-29 14:42:00,62.0,42.0,30.28,NNW,332,1.0,-999.0,48,-99.99,,,-99.99,,2013-01-29 22:42:00,
2013-01-29 14:52:00,63.0,42.0,30.28,NW,316,1.0,-999.0,46,-99.99,,,-99.99,,2013-01-29 22:52:00,
2013-01-29 15:02:00,63.0,42.0,30.28,NNE,14,2.0,-999.0,47,-99.99,,,-99.99,,2013-01-29 23:02:00,
2013-01-29 15:11:00,63.0,42.0,30.28,NNE,14,2.0,-999.0,47,-99.99,,,-99.99,,2013-01-29 23:11:00,
2013-01-29 15:22:00,63.0,42.0,30.28,NNE,14,2.0,-999.0,47,-99.99,,,-99.99,,2013-01-29 23:22:00,
2013-01-29 15:32:00,64.0,43.0,30.27,NW,316,1.0,-999.0,46,-99.99,,,-99.99,,2013-01-29 23:32:00,
2013-01-29 15:42:00,64.0,43.0,30.27,NW,316,1.0,-999.0,46,-99.99,,,-99.99,,2013-01-29 23:42:00,
2013-01-29 15:53:00,64.0,43.0,30.27,NE,34,1.0,-999.0,47,-99.99,,,-99.99,,2013-01-29 23:53:00,
2013-01-29 16:02:00,63.0,44.0,30.27,NW,321,1.0,-999.0,49,-99.99,,,-99.99,,2013-01-30 00:02:00,
2013-01-29 16:11:00,63.0,44.0,30.27,NW,321,1.0,-999.0,49,-99.99,,,-99.99,,2013-01-30 00:11:00,
2013-01-29 16:22:00,62.0,43.0,30.27,NNW,328,1.0,-999.0,49,-99.99,,,-99.99,,2013-01-30 00:22:00,
2013-01-29 16:32:00,62.0,43.0,30.26,NNW,327,1.0,-999.0,50,-99.99,,,-99.99,,2013-01-30 00:32:00,
2013-01-29 16:42:00,62.0,43.0,30.26,NNW,327,1.0,-999.0,50,-99.99,,,-99.99,,2013-01-30 00:42:00,
2013-01-29 16:52:00,62.0,44.0,30.27,NNE,13,0.0,-999.0,51,-99.99,,,-99.99,,2013-01-30 00:52:00,
2013-01-29 17:01:00,61.0,43.0,30.27,NNW,331,1.0,-999.0,52,-99.99,,,-99.99,,2013-01-30 01:01:00,
2013-01-29 17:11:00,61.0,43.0,30.27,NNW,331,1.0,-999.0,52,-99.99,,,-99.99,,2013-01-30 01:11:00,
2013-01-29 17:22:00,61.0,44.0,30.27,NNW,339,0.0,-999.0,54,-99.99,,,-99.99,,2013-01-30 01:22:00,
2013-01-29 17:32:00,60.0,45.0,30.26,NNW,339,0.0,-999.0,57,-99.99,,,-99.99,,2013-01-30 01:32:00,
2013-01-29 17:42:00,60.0,45.0,30.26,NNW,339,0.0,-999.0,57,-99.99,,,-99.99,,2013-01-30 01:42:00,
2013-01-29 17:51:00,59.0,45.0,30.27,NNW,339,0.0,-999.0,60,-99.99,,,-99.99,,2013-01-30 01:51:00,
2013-01-29 18:02:00,57.0,44.0,30.27,NNW,339,0.0,-999.0,62,-99.99,,,-99.99,,2013-01-30 02:02:00,
2013-01-29 18:11:00,57.0,44.0,30.27,NNW,339,0.0,-999.0,62,-99.99,,,-99.99,,2013-01-30 02:11:00,
2013-01-29 18:21:00,56.0,45.0,30.27,NNW,339,0.0,-999.0,66,-99.99,,,-99.99,,2013-01-30 02:21:00,
2013-01-29 18:33:00,55.0,45.0,30.28,NNW,339,0.0,-999.0,69,-99.99,,,-99.99,,2013-01-30 02:33:00,
2013-01-29 18:42:00,55.0,45.0,30.28,NNW,339,0.0,-999.0,69,-99.99,,,-99.99,,2013-01-30 02:42:00,
2013-01-29 18:52:00,54.0,44.0,30.28,NNW,339,0.0,-999.0,69,-99.99,,,-99.99,,2013-01-30 02:52:00,
2013-01-29 19:02:00,54.0,44.0,30.28,NNW,339,0.0,-999.0,68,-99.99,,,-99.99,,2013-01-30 03:02:00,
2013-01-29 19:11:00,54.0,44.0,30.28,NNW,339,0.0,-999.0,68,-99.99,,,-99.99,,2013-01-30 03:11:00,
2013-01-29 19:21:00,53.0,43.0,30.29,NNW,339,0.0,-999.0,69,-99.99,,,-99.99,,2013-01-30 03:21:00,
2013-01-29 19:31:00,52.0,44.0,30.29,NNW,339,0.0,-999.0,73,-99.99,,,-99.99,,2013-01-30 03:31:00,
2013-01-29 19:42:00,52.0,44.0,30.29,NNW,339,0.0,-999.0,73,-99.99,,,-99.99,,2013-01-30 03:42:00,
2013-01-29 19:51:00,51.0,43.0,30.29,NNW,339,0.0,-999.0,75,-99.99,,,-99.99,,2013-01-30 03:51:00,
2013-01-29 20:02:00,50.0,42.0,30.29,NNW,339,0.0,-999.0,75,-99.99,,,-99.99,,2013-01-30 04:02:00,
2013-01-29 20:11:00,50.0,42.0,30.29,NNW,339,0.0,-999.0,75,-99.99,,,-99.99,,2013-01-30 04:11:00,
2013-01-29 20:21:00,49.0,42.0,30.29,NNW,339,0.0,-999.0,77,-99.99,,,-99.99,,2013-01-30 04:21:00,
2013-01-29 20:32:00,49.0,42.0,30.29,NNW,339,0.0,-999.0,77,-99.99,,,-99.99,,2013-01-30 04:32:00,
2013-01-29 20:41:00,49.0,42.0,30.29,NNW,339,0.0,-999.0,77,-99.99,,,-99.99,,2013-01-30 04:41:00,
2013-01-29 20:52:00,48.0,42.0,30.30,NNW,339,0.0,-999.0,79,-99.99,,,-99.99,,2013-01-30 04:52:00,
2013-01-29 21:03:00,47.0,41.0,30.30,NNW,339,0.0,-999.0,80,-99.99,,,-99.99,,2013-01-30 05:03:00,
2013-01-29 21:11:00,47.0,41.0,30.30,NNW,339,0.0,-999.0,80,-99.99,,,-99.99,,2013-01-30 05:11:00,
2013-01-29 21:22:00,47.0,41.0,30.30,NNW,339,0.0,-999.0,81,-99.99,,,-99.99,,2013-01-30 05:22:00,
2013-01-29 21:32:00,46.0,41.0,30.30,NNW,339,0.0,-999.0,81,-99.99,,,-99.99,,2013-01-30 05:32:00,
2013-01-29 21:42:00,46.0,41.0,30.30,NNW,339,0.0,-999.0,81,-99.99,,,-99.99,,2013-01-30 05:42:00,
2013-01-29 21:52:00,46.0,41.0,30.30,NNW,339,0.0,-999.0,81,-99.99,,,-99.99,,2013-01-30 05:52:00,
2013-01-29 22:02:00,46.0,41.0,30.30,NNW,339,0.0,-999.0,82,-99.99,,,-99.99,,2013-01-30 06:02:00,
2013-01-29 22:11:00,46.0,41.0,30.30,NNW,339,0.0,-999.0,82,-99.99,,,-99.99,,2013-01-30 06:11:00,
2013-01-29 22:21:00,45.0,40.0,30.31,NNW,339,0.0,-999.0,83,-99.99,,,-99.99,,2013-01-30 06:21:00,
2013-01-29 22:31:00,44.0,40.0,30.30,NNW,339,0.0,-999.0,85,-99.99,,,-99.99,,2013-01-30 06:31:00,
2013-01-29 22:41:00,44.0,40.0,30.30,NNW,339,0.0,-999.0,85,-99.99,,,-99.99,,2013-01-30 06:41:00,
2013-01-29 22:51:00,43.0,39.0,30.30,NNW,339,0.0,-999.0,86,-99.99,,,-99.99,,2013-01-30 06:51:00,
2013-01-29 23:01:00,43.0,39.0,30.31,NNW,339,0.0,-999.0,86,-99.99,,,-99.99,,2013-01-30 07:01:00,
2013-01-29 23:11:00,43.0,39.0,30.31,NNW,339,0.0,-999.0,86,-99.99,,,-99.99,,2013-01-30 07:11:00,
2013-01-29 23:21:00,42.0,39.0,30.31,NNW,339,0.0,-999.0,88,-99.99,,,-99.99,,2013-01-30 07:21:00,
2013-01-29 23:31:00,42.0,39.0,30.31,NNW,339,0.0,-999.0,90,-99.99,,,-99.99,,2013-01-30 07:31:00,
2013-01-29 23:41:00,42.0,39.0,30.31,NNW,339,0.0,-999.0,90,-99.99,,,-99.99,,2013-01-30 07:41:00,
2013-01-29 23:52:00,42.0,39.0,30.32,NNW,339,0.0,-999.0,90,-99.99,,,-99.99,,2013-01-30 07:52:00,